#Datum;Uhrzeit;WR;Pac;DaySum;Status;WR;Pac;DaySum;Status;Pdc1;Udc;Temp;WR;Pac;DaySum;Status;Pdc1;Udc;Temp;WR;Pac;DaySum;Status;Pdc1;Udc;Temp;WR;Pac;DaySum;Status;Pdc1;Pdc2;Udc1;Udc2;Temp;WR;Pac;DaySum;Status;Pdc1;Pdc2;Udc1;Udc2;Temp;WR;Pac;DaySum;Status;Pdc1;Udc;Temp;WR;Pac;DaySum;Status;Pdc1;Udc;Temp;WR;Pac;DaySum;Status;Pdc1;Udc;Temp
23.11.20;23:55:00;1;325;11204;0;2;0;1963;0;0;0;0;3;0;1157;0;0;0;0;4;0;1573;0;0;0;0;5;0;0;0;0;0;0;0;0;6;0;3179;0;0;0;0;0;0;7;0;1855;0;0;0;0;8;0;1883;0;0;0;0;9;0;962;0;0;0;0
23.11.20;23:50:00;1;310;11177;0;2;0;1963;0;0;0;0;3;0;1157;0;0;0;0;4;0;1573;0;0;0;0;5;0;0;0;0;0;0;0;0;6;0;3179;0;0;0;0;0;0;7;0;1855;0;0;0;0;8;0;1883;0;0;0;0;9;0;962;0;0;0;0
23.11.20;23:45:00;1;353;11151;0;2;0;1963;0;0;0;0;3;0;1157;0;0;0;0;4;0;1573;0;0;0;0;5;0;0;0;0;0;0;0;0;6;0;3179;0;0;0;0;0;0;7;0;1855;0;0;0;0;8;0;1883;0;0;0;0;9;0;962;0;0;0;0
23.11.20;23:40:00;1;319;11122;0;2;0;1963;0;0;0;0;3;0;1157;0;0;0;0;4;0;1573;0;0;0;0;5;0;0;0;0;0;0;0;0;6;0;3179;0;0;0;0;0;0;7;0;1855;0;0;0;0;8;0;1883;0;0;0;0;9;0;962;0;0;0;0
23.11.20;23:35:00;1;319;11093;0;2;0;1963;0;0;0;0;3;0;1157;0;0;0;0;4;0;1573;0;0;0;0;5;0;0;0;0;0;0;0;0;6;0;3179;0;0;0;0;0;0;7;0;1855;0;0;0;0;8;0;1883;0;0;0;0;9;0;962;0;0;0;0
23.11.20;23:30:00;1;359;11068;0;2;0;1963;0;0;0;0;3;0;1157;0;0;0;0;4;0;1573;0;0;0;0;5;0;0;0;0;0;0;0;0;6;0;3179;0;0;0;0;0;0;7;0;1855;0;0;0;0;8;0;1883;0;0;0;0;9;0;962;0;0;0;0
23.11.20;23:25:00;1;362;11038;0;2;0;1963;0;0;0;0;3;0;1157;0;0;0;0;4;0;1573;0;0;0;0;5;0;0;0;0;0;0;0;0;6;0;3179;0;0;0;0;0;0;7;0;1855;0;0;0;0;8;0;1883;0;0;0;0;9;0;962;0;0;0;0
23.11.20;23:20:00;1;332;11008;0;2;0;1963;0;0;0;0;3;0;1157;0;0;0;0;4;0;1573;0;0;0;0;5;0;0;0;0;0;0;0;0;6;0;3179;0;0;0;0;0;0;7;0;1855;0;0;0;0;8;0;1883;0;0;0;0;9;0;962;0;0;0;0
23.11.20;23:15:00;1;320;10980;0;2;0;1963;0;0;0;0;3;0;1157;0;0;0;0;4;0;1573;0;0;0;0;5;0;0;0;0;0;0;0;0;6;0;3179;0;0;0;0;0;0;7;0;1855;0;0;0;0;8;0;1883;0;0;0;0;9;0;962;0;0;0;0
23.11.20;23:10:00;1;362;10953;0;2;0;1963;0;0;0;0;3;0;1157;0;0;0;0;4;0;1573;0;0;0;0;5;0;0;0;0;0;0;0;0;6;0;3179;0;0;0;0;0;0;7;0;1855;0;0;0;0;8;0;1883;0;0;0;0;9;0;962;0;0;0;0
23.11.20;23:05:00;1;322;10923;0;2;0;1963;0;0;0;0;3;0;1157;0;0;0;0;4;0;1573;0;0;0;0;5;0;0;0;0;0;0;0;0;6;0;3179;0;0;0;0;0;0;7;0;1855;0;0;0;0;8;0;1883;0;0;0;0;9;0;962;0;0;0;0
23.11.20;23:00:00;1;323;10896;0;2;0;1963;0;0;0;0;3;0;1157;0;0;0;0;4;0;1573;0;0;0;0;5;0;0;0;0;0;0;0;0;6;0;3179;0;0;0;0;0;0;7;0;1855;0;0;0;0;8;0;1883;0;0;0;0;9;0;962;0;0;0;0
23.11.20;22:55:00;1;354;10869;0;2;0;1963;0;0;0;0;3;0;1157;0;0;0;0;4;0;1573;0;0;0;0;5;0;0;0;0;0;0;0;0;6;0;3179;2;0;0;0;0;0;7;0;1855;0;0;0;0;8;0;1883;0;0;0;0;9;0;962;0;0;0;0
23.11.20;22:50:00;1;430;10840;0;2;0;1963;0;0;0;0;3;0;1157;0;0;0;0;4;0;1573;0;0;0;0;5;0;0;0;0;0;0;0;0;6;0;3179;2;0;0;0;0;0;7;0;1855;0;0;0;0;8;0;1883;0;0;0;0;9;0;962;0;0;0;0
23.11.20;22:45:00;1;445;10803;0;2;0;1963;0;0;0;0;3;0;1157;0;0;0;0;4;0;1573;0;0;0;0;5;0;0;0;0;0;0;0;0;6;0;3179;2;0;0;0;0;0;7;0;1855;0;0;0;0;8;0;1883;0;0;0;0;9;0;962;0;0;0;0
23.11.20;22:40:00;1;489;10765;0;2;0;1963;0;0;0;0;3;0;1157;0;0;0;0;4;0;1573;0;0;0;0;5;0;0;0;0;0;0;0;0;6;0;3179;2;0;0;0;0;0;7;0;1855;0;0;0;0;8;0;1883;0;0;0;0;9;0;962;0;0;0;0
23.11.20;22:35:00;1;451;10723;0;2;0;1963;0;0;0;0;3;0;1157;0;0;0;0;4;0;1573;0;0;0;0;5;0;0;0;0;0;0;0;0;6;0;3179;2;0;0;0;0;0;7;0;1855;0;0;0;0;8;0;1883;0;0;0;0;9;0;962;0;0;0;0
23.11.20;22:30:00;1;437;10686;0;2;0;1963;0;0;0;0;3;0;1157;0;0;0;0;4;0;1573;0;0;0;0;5;0;0;0;0;0;0;0;0;6;0;3179;2;0;0;0;0;0;7;0;1855;0;0;0;0;8;0;1883;0;0;0;0;9;0;962;0;0;0;0
23.11.20;22:25:00;1;490;10649;0;2;0;1963;0;0;0;0;3;0;1157;0;0;0;0;4;0;1573;0;0;0;0;5;0;0;0;0;0;0;0;0;6;0;3179;2;0;0;0;0;0;7;0;1855;0;0;0;0;8;0;1883;0;0;0;0;9;0;962;0;0;0;0
23.11.20;22:20:00;1;488;10608;0;2;0;1963;0;0;0;0;3;0;1157;0;0;0;0;4;0;1573;0;0;0;0;5;0;0;0;0;0;0;0;0;6;0;3179;2;0;0;0;0;0;7;0;1855;0;0;0;0;8;0;1883;0;0;0;0;9;0;962;0;0;0;0
23.11.20;22:15:00;1;497;10567;0;2;0;1963;0;0;0;0;3;0;1157;0;0;0;0;4;0;1573;0;0;0;0;5;0;0;0;0;0;0;0;0;6;0;3179;2;0;0;0;0;0;7;0;1855;0;0;0;0;8;0;1883;0;0;0;0;9;0;962;0;0;0;0
23.11.20;22:10:00;1;546;10526;0;2;0;1963;0;0;0;0;3;0;1157;0;0;0;0;4;0;1573;0;0;0;0;5;0;0;0;0;0;0;0;0;6;0;3179;2;0;0;0;0;0;7;0;1855;0;0;0;0;8;0;1883;0;0;0;0;9;0;962;0;0;0;0
23.11.20;22:05:00;1;468;10482;0;2;0;1963;0;0;0;0;3;0;1157;0;0;0;0;4;0;1573;0;0;0;0;5;0;0;0;0;0;0;0;0;6;0;3179;2;0;0;0;0;0;7;0;1855;0;0;0;0;8;0;1883;0;0;0;0;9;0;962;0;0;0;0
23.11.20;22:00:00;1;474;10443;0;2;0;1963;0;0;0;0;3;0;1157;0;0;0;0;4;0;1573;0;0;0;0;5;0;0;0;0;0;0;0;0;6;0;3179;2;0;0;0;0;0;7;0;1855;0;0;0;0;8;0;1883;0;0;0;0;9;0;962;0;0;0;0
23.11.20;21:55:00;1;484;10403;0;2;0;1963;0;0;0;0;3;0;1157;0;0;0;0;4;0;1573;0;0;0;0;5;0;0;0;0;0;0;0;0;6;0;3179;2;0;0;0;0;0;7;0;1855;0;0;0;0;8;0;1883;0;0;0;0;9;0;962;0;0;0;0
23.11.20;21:50:00;1;444;10363;0;2;0;1963;0;0;0;0;3;0;1157;0;0;0;0;4;0;1573;0;0;0;0;5;0;0;0;0;0;0;0;0;6;0;3179;2;0;0;0;0;0;7;0;1855;0;0;0;0;8;0;1883;0;0;0;0;9;0;962;0;0;0;0
23.11.20;21:45:00;1;443;10326;0;2;0;1963;0;0;0;0;3;0;1157;0;0;0;0;4;0;1573;0;0;0;0;5;0;0;0;0;0;0;0;0;6;0;3179;2;0;0;0;0;0;7;0;1855;0;0;0;0;8;0;1883;0;0;0;0;9;0;962;0;0;0;0
23.11.20;21:40:00;1;483;10289;0;2;0;1963;0;0;0;0;3;0;1157;0;0;0;0;4;0;1573;0;0;0;0;5;0;0;0;0;0;0;0;0;6;0;3179;2;0;0;0;0;0;7;0;1855;0;0;0;0;8;0;1883;0;0;0;0;9;0;962;0;0;0;0
23.11.20;21:35:00;1;418;10248;0;2;0;1963;0;0;0;0;3;0;1157;0;0;0;0;4;0;1573;0;0;0;0;5;0;0;0;0;0;0;0;0;6;0;3179;2;0;0;0;0;0;7;0;1855;0;0;0;0;8;0;1883;0;0;0;0;9;0;962;0;0;0;0
23.11.20;21:30:00;1;415;10212;0;2;0;1963;0;0;0;0;3;0;1157;0;0;0;0;4;0;1573;0;0;0;0;5;0;0;0;0;0;0;0;0;6;0;3179;2;0;0;0;0;0;7;0;1855;0;0;0;0;8;0;1883;0;0;0;0;9;0;962;0;0;0;0
23.11.20;21:25:00;1;454;10178;0;2;0;1963;0;0;0;0;3;0;1157;0;0;0;0;4;0;1573;0;0;0;0;5;0;0;0;0;0;0;0;0;6;0;3179;2;0;0;0;0;0;7;0;1855;0;0;0;0;8;0;1883;0;0;0;0;9;0;962;0;0;0;0
23.11.20;21:20:00;1;465;10140;0;2;0;1963;0;0;0;0;3;0;1157;0;0;0;0;4;0;1573;0;0;0;0;5;0;0;0;0;0;0;0;0;6;0;3179;2;0;0;0;0;0;7;0;1855;0;0;0;0;8;0;1883;0;0;0;0;9;0;962;0;0;0;0
23.11.20;21:15:00;1;538;10102;0;2;0;1963;0;0;0;0;3;0;1157;0;0;0;0;4;0;1573;0;0;0;0;5;0;0;0;0;0;0;0;0;6;0;3179;2;0;0;0;0;0;7;0;1855;0;0;0;0;8;0;1883;0;0;0;0;9;0;962;0;0;0;0
23.11.20;21:10:00;1;578;10058;0;2;0;1963;0;0;0;0;3;0;1157;0;0;0;0;4;0;1573;0;0;0;0;5;0;0;0;0;0;0;0;0;6;0;3179;2;0;0;0;0;0;7;0;1855;0;0;0;0;8;0;1883;0;0;0;0;9;0;962;0;0;0;0
23.11.20;21:05:00;1;519;10010;0;2;0;1963;0;0;0;0;3;0;1157;0;0;0;0;4;0;1573;0;0;0;0;5;0;0;0;0;0;0;0;0;6;0;3179;2;0;0;0;0;0;7;0;1855;0;0;0;0;8;0;1883;0;0;0;0;9;0;962;0;0;0;0
23.11.20;21:00:00;1;754;9966;0;2;0;1963;0;0;0;0;3;0;1157;0;0;0;0;4;0;1573;0;0;0;0;5;0;0;0;0;0;0;0;0;6;0;3179;2;0;0;0;0;0;7;0;1855;0;0;0;0;8;0;1883;0;0;0;0;9;0;962;0;0;0;0
23.11.20;20:55:00;1;753;9902;0;2;0;1963;0;0;0;0;3;0;1157;0;0;0;0;4;0;1573;0;0;0;0;5;0;0;0;0;0;0;0;0;6;0;3179;2;0;0;0;0;0;7;0;1855;0;0;0;0;8;0;1883;0;0;0;0;9;0;962;0;0;0;0
23.11.20;20:50:00;1;723;9839;0;2;0;1963;0;0;0;0;3;0;1157;0;0;0;0;4;0;1573;0;0;0;0;5;0;0;0;0;0;0;0;0;6;0;3179;2;0;0;0;0;0;7;0;1855;0;0;0;0;8;0;1883;0;0;0;0;9;0;962;0;0;0;0
23.11.20;20:45:00;1;580;9778;0;2;0;1963;0;0;0;0;3;0;1157;0;0;0;0;4;0;1573;0;0;0;0;5;0;0;0;0;0;0;0;0;6;0;3179;2;0;0;0;0;0;7;0;1855;0;0;0;0;8;0;1883;0;0;0;0;9;0;962;0;0;0;0
23.11.20;20:40:00;1;582;9730;0;2;0;1963;0;0;0;0;3;0;1157;0;0;0;0;4;0;1573;0;0;0;0;5;0;0;0;0;0;0;0;0;6;0;3179;2;0;0;0;0;0;7;0;1855;0;0;0;0;8;0;1883;0;0;0;0;9;0;962;0;0;0;0
23.11.20;20:35:00;1;438;9681;0;2;0;1963;0;0;0;0;3;0;1157;0;0;0;0;4;0;1573;0;0;0;0;5;0;0;0;0;0;0;0;0;6;0;3179;2;0;0;0;0;0;7;0;1855;0;0;0;0;8;0;1883;0;0;0;0;9;0;962;0;0;0;0
23.11.20;20:30:00;1;428;9641;0;2;0;1963;0;0;0;0;3;0;1157;0;0;0;0;4;0;1573;0;0;0;0;5;0;0;0;0;0;0;0;0;6;0;3179;2;0;0;0;0;0;7;0;1855;0;0;0;0;8;0;1883;0;0;0;0;9;0;962;0;0;0;0
23.11.20;20:25:00;1;433;9606;0;2;0;1963;0;0;0;0;3;0;1157;0;0;0;0;4;0;1573;0;0;0;0;5;0;0;0;0;0;0;0;0;6;0;3179;2;0;0;0;0;0;7;0;1855;0;0;0;0;8;0;1883;0;0;0;0;9;0;962;0;0;0;0
23.11.20;20:20:00;1;510;9569;0;2;0;1963;0;0;0;0;3;0;1157;0;0;0;0;4;0;1573;0;0;0;0;5;0;0;0;0;0;0;0;0;6;0;3179;2;0;0;0;0;0;7;0;1855;0;0;0;0;8;0;1883;0;0;0;0;9;0;962;0;0;0;0
23.11.20;20:15:00;1;529;9528;0;2;0;1963;0;0;0;0;3;0;1157;0;0;0;0;4;0;1573;0;0;0;0;5;0;0;0;0;0;0;0;0;6;0;3179;2;0;0;0;0;0;7;0;1855;0;0;0;0;8;0;1883;0;0;0;0;9;0;962;0;0;0;0
23.11.20;20:10:00;1;611;9482;0;2;0;1963;0;0;0;0;3;0;1157;0;0;0;0;4;0;1573;0;0;0;0;5;0;0;0;0;0;0;0;0;6;0;3179;2;0;0;0;0;0;7;0;1855;0;0;0;0;8;0;1883;0;0;0;0;9;0;962;0;0;0;0
23.11.20;20:05:00;1;452;9426;0;2;0;1963;0;0;0;0;3;0;1157;0;0;0;0;4;0;1573;0;0;0;0;5;0;0;0;0;0;0;0;0;6;0;3179;2;0;0;0;0;0;7;0;1855;0;0;0;0;8;0;1883;0;0;0;0;9;0;962;0;0;0;0
23.11.20;20:00:00;1;521;9389;0;2;0;1963;0;0;0;0;3;0;1157;0;0;0;0;4;0;1573;0;0;0;0;5;0;0;0;0;0;0;0;0;6;0;3179;2;0;0;0;0;0;7;0;1855;0;0;0;0;8;0;1883;0;0;0;0;9;0;962;0;0;0;0
23.11.20;19:55:00;1;606;9347;0;2;0;1963;0;0;0;0;3;0;1157;0;0;0;0;4;0;1573;0;0;0;0;5;0;0;0;0;0;0;0;0;6;0;3179;2;0;0;0;0;0;7;0;1855;0;0;0;0;8;0;1883;0;0;0;0;9;0;962;0;0;0;0
23.11.20;19:50:00;1;654;9296;0;2;0;1963;0;0;0;0;3;0;1157;0;0;0;0;4;0;1573;0;0;0;0;5;0;0;0;0;0;0;0;0;6;0;3179;2;0;0;0;0;0;7;0;1855;0;0;0;0;8;0;1883;0;0;0;0;9;0;962;0;0;0;0
23.11.20;19:45:00;1;525;9246;0;2;0;1963;0;0;0;0;3;0;1157;0;0;0;0;4;0;1573;0;0;0;0;5;0;0;0;0;0;0;0;0;6;0;3179;2;0;0;0;0;0;7;0;1855;0;0;0;0;8;0;1883;0;0;0;0;9;0;962;0;0;0;0
23.11.20;19:40:00;1;549;9203;0;2;0;1963;0;0;0;0;3;0;1157;0;0;0;0;4;0;1573;0;0;0;0;5;0;0;0;0;0;0;0;0;6;0;3179;2;0;0;0;0;0;7;0;1855;0;0;0;0;8;0;1883;0;0;0;0;9;0;962;0;0;0;0
23.11.20;19:35:00;1;506;9157;0;2;0;1963;0;0;0;0;3;0;1157;0;0;0;0;4;0;1573;0;0;0;0;5;0;0;0;0;0;0;0;0;6;0;3179;2;0;0;0;0;0;7;0;1855;0;0;0;0;8;0;1883;0;0;0;0;9;0;962;0;0;0;0
23.11.20;19:30:00;1;526;9113;0;2;0;1963;0;0;0;0;3;0;1157;0;0;0;0;4;0;1573;0;0;0;0;5;0;0;0;0;0;0;0;0;6;0;3179;2;0;0;0;0;0;7;0;1855;0;0;0;0;8;0;1883;0;0;0;0;9;0;962;0;0;0;0
23.11.20;19:25:00;1;526;9069;0;2;0;1963;0;0;0;0;3;0;1157;0;0;0;0;4;0;1573;0;0;0;0;5;0;0;0;0;0;0;0;0;6;0;3179;2;0;0;0;0;0;7;0;1855;0;0;0;0;8;0;1883;0;0;0;0;9;0;962;0;0;0;0
23.11.20;19:20:00;1;485;9025;0;2;0;1963;0;0;0;0;3;0;1157;0;0;0;0;4;0;1573;0;0;0;0;5;0;0;0;0;0;0;0;0;6;0;3179;2;0;0;0;0;0;7;0;1855;0;0;0;0;8;0;1883;0;0;0;0;9;0;962;0;0;0;0
23.11.20;19:15:00;1;534;8984;0;2;0;1963;0;0;0;0;3;0;1157;0;0;0;0;4;0;1573;0;0;0;0;5;0;0;0;0;0;0;0;0;6;0;3179;2;0;0;0;0;0;7;0;1855;0;0;0;0;8;0;1883;0;0;0;0;9;0;962;0;0;0;0
23.11.20;19:10:00;1;592;8941;0;2;0;1963;0;0;0;0;3;0;1157;0;0;0;0;4;0;1573;0;0;0;0;5;0;0;0;0;0;0;0;0;6;0;3179;2;0;0;0;0;0;7;0;1855;0;0;0;0;8;0;1883;0;0;0;0;9;0;962;0;0;0;0
23.11.20;19:05:00;1;657;8891;0;2;0;1963;0;0;0;0;3;0;1157;0;0;0;0;4;0;1573;0;0;0;0;5;0;0;0;0;0;0;0;0;6;0;3179;2;0;0;0;0;0;7;0;1855;0;0;0;0;8;0;1883;0;0;0;0;9;0;962;0;0;0;0
23.11.20;19:00:00;1;612;8836;0;2;0;1963;0;0;0;0;3;0;1157;0;0;0;0;4;0;1573;0;0;0;0;5;0;0;0;0;0;0;0;0;6;0;3179;2;0;0;0;0;0;7;0;1855;0;0;0;0;8;0;1883;0;0;0;0;9;0;962;0;0;0;0
23.11.20;18:55:00;1;757;8783;0;2;0;1963;0;0;0;0;3;0;1157;0;0;0;0;4;0;1573;0;0;0;0;5;0;0;0;0;0;0;0;0;6;0;3179;2;0;0;0;0;0;7;0;1855;0;0;0;0;8;0;1883;0;0;0;0;9;0;962;0;0;0;0
23.11.20;18:50:00;1;608;8720;0;2;0;1963;0;0;0;0;3;0;1157;0;0;0;0;4;0;1573;0;0;0;0;5;0;0;0;0;0;0;0;0;6;0;3179;2;0;0;0;0;0;7;0;1855;0;0;0;0;8;0;1883;0;0;0;0;9;0;962;0;0;0;0
23.11.20;18:45:00;1;529;8670;0;2;0;1963;0;0;0;0;3;0;1157;0;0;0;0;4;0;1573;0;0;0;0;5;0;0;0;0;0;0;0;0;6;0;3179;2;0;0;0;0;0;7;0;1855;0;0;0;0;8;0;1883;0;0;0;0;9;0;962;0;0;0;0
23.11.20;18:40:00;1;529;8625;0;2;0;1963;0;0;0;0;3;0;1157;0;0;0;0;4;0;1573;0;0;0;0;5;0;0;0;0;0;0;0;0;6;0;3179;2;0;0;0;0;0;7;0;1855;0;0;0;0;8;0;1883;0;0;0;0;9;0;962;0;0;0;0
23.11.20;18:35:00;1;565;8581;0;2;0;1963;0;0;0;0;3;0;1157;0;0;0;0;4;0;1573;0;0;0;0;5;0;0;0;0;0;0;0;0;6;0;3179;2;0;0;0;0;0;7;0;1855;0;0;0;0;8;0;1883;0;0;0;0;9;0;962;0;0;0;0
23.11.20;18:30:00;1;528;8533;0;2;0;1963;0;0;0;0;3;0;1157;0;0;0;0;4;0;1573;0;0;0;0;5;0;0;0;0;0;0;0;0;6;0;3179;2;0;0;0;0;0;7;0;1855;0;0;0;0;8;0;1883;0;0;0;0;9;0;962;0;0;0;0
23.11.20;18:25:00;1;535;8489;0;2;0;1963;0;0;0;0;3;0;1157;0;0;0;0;4;0;1573;0;0;0;0;5;0;0;0;0;0;0;0;0;6;0;3179;2;0;0;0;0;0;7;0;1855;0;0;0;0;8;0;1883;0;0;0;0;9;0;962;0;0;0;0
23.11.20;18:20:00;1;580;8445;0;2;0;1963;0;0;0;0;3;0;1157;0;0;0;0;4;0;1573;0;0;0;0;5;0;0;0;0;0;0;0;0;6;0;3179;2;0;0;0;0;0;7;0;1855;0;0;0;0;8;0;1883;0;0;0;0;9;0;962;0;0;0;0
23.11.20;18:15:00;1;592;8396;0;2;0;1963;0;0;0;0;3;0;1157;0;0;0;0;4;0;1573;0;0;0;0;5;0;0;0;0;0;0;0;0;6;0;3179;2;0;0;0;0;0;7;0;1855;0;0;0;0;8;0;1883;0;0;0;0;9;0;962;0;0;0;0
23.11.20;18:10:00;1;537;8347;0;2;0;1963;0;0;0;0;3;0;1157;0;0;0;0;4;0;1573;0;0;0;0;5;0;0;0;0;0;0;0;0;6;0;3179;2;0;0;0;0;0;7;0;1855;0;0;0;0;8;0;1883;0;0;0;0;9;0;962;0;0;0;0
23.11.20;18:05:00;1;672;8302;0;2;0;1963;0;0;0;0;3;0;1157;0;0;0;0;4;0;1573;0;0;0;0;5;0;0;0;0;0;0;0;0;6;0;3179;2;0;0;0;0;0;7;0;1855;0;0;0;0;8;0;1883;0;0;0;0;9;0;962;0;0;0;0
23.11.20;18:00:00;1;652;8248;0;2;0;1963;0;0;0;0;3;0;1157;0;0;0;0;4;0;1573;0;0;0;0;5;0;0;0;0;0;0;0;0;6;0;3179;2;0;0;0;0;0;7;0;1855;0;0;0;0;8;0;1883;0;0;0;0;9;0;962;0;0;0;0
23.11.20;17:55:00;1;657;8193;0;2;0;1963;0;0;0;0;3;0;1157;0;0;0;0;4;0;1573;0;0;0;0;5;0;0;0;0;0;0;0;0;6;0;3179;2;0;0;0;0;0;7;0;1855;0;0;0;0;8;0;1883;0;0;0;0;9;0;962;0;0;0;0
23.11.20;17:50:00;1;634;8138;0;2;0;1963;0;0;0;0;3;0;1157;0;0;0;0;4;0;1573;0;0;0;0;5;0;0;0;0;0;0;0;0;6;0;3179;2;0;0;0;0;0;7;0;1855;0;0;0;0;8;0;1883;0;0;0;0;9;0;962;0;0;0;0
23.11.20;17:45:00;1;463;8085;0;2;0;1963;0;0;0;0;3;0;1157;0;0;0;0;4;0;1573;0;0;0;0;5;0;0;0;0;0;0;0;0;6;0;3179;2;0;0;0;0;0;7;0;1855;0;0;0;0;8;0;1883;0;0;0;0;9;0;962;0;0;0;0
23.11.20;17:40:00;1;427;8046;0;2;0;1963;0;0;0;0;3;0;1157;0;0;0;0;4;0;1573;0;0;0;0;5;0;0;0;0;0;0;0;0;6;0;3179;2;0;0;0;0;0;7;0;1855;0;0;0;0;8;0;1883;0;0;0;0;9;0;962;0;0;0;0
23.11.20;17:35:00;1;461;8011;0;2;0;1963;0;0;0;0;3;0;1157;0;0;0;0;4;0;1573;0;0;0;0;5;0;0;0;0;0;0;0;0;6;0;3179;2;0;0;0;0;0;7;0;1855;0;0;0;0;8;0;1883;0;0;0;0;9;0;962;0;0;0;0
23.11.20;17:30:00;1;453;7973;0;2;0;1963;0;0;0;0;3;0;1157;0;0;0;0;4;0;1573;0;0;0;0;5;0;0;0;0;0;0;0;0;6;0;3179;2;0;0;0;0;0;7;0;1855;0;0;0;0;8;0;1883;0;0;0;0;9;0;962;0;0;0;0
23.11.20;17:25:00;1;2008;7935;0;2;0;1963;0;0;0;0;3;0;1157;0;0;0;0;4;0;1573;0;0;0;0;5;0;0;0;0;0;0;0;0;6;0;3179;2;0;0;0;0;0;7;0;1855;0;0;0;0;8;0;1883;0;0;0;0;9;0;962;0;0;0;0
23.11.20;17:20:00;1;2329;7806;0;2;0;1963;0;0;0;0;3;0;1157;0;0;0;0;4;0;1573;0;0;0;0;5;0;0;0;0;0;0;0;0;6;0;3179;2;0;0;0;0;0;7;0;1855;0;0;0;0;8;0;1883;0;0;0;0;9;0;962;0;0;0;0
23.11.20;17:15:00;1;2361;7613;0;2;0;1963;0;0;0;0;3;0;1157;0;0;0;0;4;0;1573;0;0;0;0;5;0;0;0;0;0;0;0;0;6;0;3179;2;0;0;0;0;0;7;0;1855;0;0;0;0;8;0;1883;0;0;0;0;9;0;962;0;0;0;0
23.11.20;17:10:00;1;2349;7415;0;2;0;1963;0;0;0;0;3;0;1157;0;0;0;0;4;0;1573;0;0;0;0;5;0;0;0;0;0;0;0;0;6;0;3179;2;0;0;0;0;0;7;0;1855;0;0;0;0;8;0;1883;0;0;0;0;9;0;962;0;0;0;0
23.11.20;17:05:00;1;1363;7220;0;2;0;1963;0;0;0;0;3;0;1157;0;0;0;0;4;0;1573;0;0;0;0;5;0;0;0;0;0;0;0;0;6;0;3179;2;0;0;0;0;0;7;0;1855;0;0;0;0;8;0;1883;0;0;0;0;9;0;962;0;0;0;0
23.11.20;17:00:00;1;569;7159;0;2;0;1963;0;0;0;0;3;0;1157;0;0;0;0;4;0;1573;0;0;0;0;5;0;0;0;0;0;0;0;0;6;0;3179;2;0;0;0;0;0;7;0;1855;0;0;0;0;8;0;1883;0;0;0;0;9;0;962;0;0;0;0
23.11.20;16:55:00;1;480;7111;0;2;0;1963;0;0;0;0;3;0;1157;0;0;0;0;4;0;1573;0;0;0;0;5;0;0;0;0;0;0;0;0;6;0;3179;2;0;0;0;0;0;7;0;1855;0;0;0;0;8;0;1883;0;0;0;0;9;0;962;0;0;0;0
23.11.20;16:50:00;1;765;7067;0;2;0;1963;0;0;0;0;3;0;1157;0;0;0;0;4;0;1573;0;0;0;0;5;0;0;0;0;0;0;0;0;6;0;3179;2;0;0;0;0;0;7;0;1855;0;0;0;0;8;0;1883;0;0;0;0;9;0;962;0;0;0;0
23.11.20;16:45:00;1;674;6967;0;2;0;1963;0;0;0;0;3;0;1157;0;0;0;0;4;0;1573;0;0;0;0;5;0;0;0;0;0;0;0;0;6;0;3179;2;0;0;0;0;0;7;0;1855;0;0;0;0;8;0;1883;0;0;0;0;9;0;962;0;0;0;0
23.11.20;16:40:00;1;395;6919;0;2;0;1963;0;0;0;0;3;0;1157;0;0;98;4;4;0;1573;0;0;0;0;5;0;0;0;0;0;0;0;0;6;0;3179;2;0;0;0;0;0;7;0;1855;0;0;0;0;8;0;1883;0;0;0;0;9;0;962;0;0;0;0
23.11.20;16:35:00;1;376;6885;0;2;0;1963;6;0;282;10;3;0;1157;6;0;316;13;4;0;1573;0;0;58;8;5;0;0;0;0;0;0;0;0;6;0;3179;2;0;0;0;0;0;7;0;1855;0;0;0;0;8;0;1883;0;0;0;0;9;0;962;0;0;0;0
23.11.20;16:30:00;1;372;6854;0;2;0;1963;6;0;329;10;3;0;1157;6;0;390;13;4;0;1573;1;0;112;10;5;0;0;0;0;0;0;0;0;6;0;3179;1;6;3;145;289;19;7;0;1855;0;0;42;2;8;0;1883;0;0;84;4;9;0;962;0;0;175;6
23.11.20;16:25:00;1;862;6822;0;2;0;1963;6;0;352;10;3;0;1157;6;1;421;14;4;0;1573;1;0;137;10;5;0;0;0;0;0;0;0;0;6;0;3179;23;4;2;181;488;21;7;0;1855;6;0;268;14;8;0;1883;6;0;274;13;9;0;962;6;0;295;10
23.11.20;16:20:00;1;2155;6734;0;2;0;1963;6;0;362;10;3;1;1157;6;3;422;14;4;0;1573;1;0;153;10;5;0;0;0;0;0;0;0;0;6;0;3179;23;6;3;481;235;21;7;0;1855;6;0;288;14;8;0;1883;6;0;294;14;9;0;962;6;0;309;10
23.11.20;16:15:00;1;2160;6554;0;2;0;1963;6;0;373;10;3;0;1157;6;3;432;14;4;0;1573;1;0;173;10;5;0;0;0;0;0;0;0;0;6;0;3179;23;6;3;243;481;22;7;0;1855;6;0;319;14;8;0;1883;6;0;325;14;9;0;962;6;0;341;10
23.11.20;16:10:00;1;2177;6373;0;2;0;1963;6;0;386;10;3;0;1157;6;2;456;14;4;0;1573;1;0;197;11;5;0;0;0;0;0;0;0;0;6;0;3179;23;5;3;182;560;22;7;0;1855;6;0;372;14;8;0;1883;6;0;378;14;9;0;962;6;0;405;10
23.11.20;16:05:00;1;732;6193;0;2;0;1963;6;0;395;11;3;1;1157;6;3;481;14;4;0;1573;1;0;213;11;5;0;0;0;0;0;0;0;0;6;0;3179;23;8;2;270;572;22;7;0;1855;6;0;398;14;8;0;1883;6;0;405;14;9;0;962;6;1;419;10
23.11.20;16:00:00;1;494;6141;0;2;0;1963;6;0;409;11;3;3;1156;3;7;479;14;4;0;1573;3;0;210;11;5;0;0;0;0;0;0;0;0;6;0;3179;23;7;2;449;585;23;7;0;1855;6;1;435;15;8;1;1883;6;3;424;14;9;0;962;6;1;481;10
23.11.20;15:55:00;1;413;6098;0;2;0;1963;6;0;411;11;3;2;1156;6;4;490;14;4;0;1573;1;0;228;11;5;0;0;0;0;0;0;0;0;6;31;3179;1;16;19;524;502;24;7;0;1855;6;1;446;15;8;1;1883;6;1;449;14;9;1;962;6;1;488;10
23.11.20;15:50:00;1;448;6060;0;2;3;1963;6;7;414;11;3;2;1156;6;5;518;14;4;8;1573;3;8;199;12;5;0;0;0;0;0;0;0;0;6;79;3175;4;51;56;484;460;24;7;1;1855;6;8;444;15;8;1;1883;6;8;446;14;9;1;962;3;5;494;10
23.11.20;15:45:00;1;422;6023;0;2;5;1962;6;10;418;11;3;2;1156;6;8;525;14;4;4;1573;3;4;199;12;5;0;0;0;0;0;0;0;0;6;84;3169;4;38;42;484;460;24;7;3;1855;6;7;479;15;8;7;1883;6;14;458;14;9;1;962;6;5;511;10
23.11.20;15:40:00;1;403;5987;0;2;14;1962;4;22;408;11;3;2;1155;6;8;529;14;4;8;1572;3;8;199;12;5;0;0;0;0;0;0;0;0;6;95;3162;4;32;34;484;460;24;7;10;1855;4;18;460;15;8;4;1883;6;9;471;14;9;2;962;6;5;538;11
23.11.20;15:35:00;1;343;5954;0;2;3;1960;6;8;416;11;3;2;1155;6;8;522;14;4;3;1572;3;3;199;12;5;0;0;0;0;0;0;0;0;6;83;3154;4;37;41;484;460;24;7;6;1854;3;12;452;15;8;6;1882;3;11;455;15;9;0;962;6;3;523;11
23.11.20;15:30:00;1;388;5925;0;2;7;1960;6;10;416;12;3;5;1155;3;13;502;14;4;6;1571;3;6;199;12;5;0;0;0;0;0;0;0;0;6;87;3147;4;39;46;484;460;24;7;2;1853;6;14;448;15;8;2;1881;6;7;474;15;9;0;962;6;3;523;11
23.11.20;15:25:00;1;345;5892;0;2;24;1959;6;36;398;12;3;3;1155;6;8;528;14;4;12;1571;3;13;199;12;5;0;0;0;0;0;0;0;0;6;100;3139;4;51;58;484;460;24;7;11;1853;6;14;458;15;8;9;1881;6;14;459;15;9;1;962;6;4;530;11
23.11.20;15:20:00;1;345;5863;0;2;13;1957;3;20;405;12;3;2;1154;6;7;524;15;4;4;1570;3;4;199;12;5;0;0;0;0;0;0;0;0;6;89;3131;4;43;48;484;460;24;7;3;1852;6;7;478;16;8;5;1880;6;8;481;15;9;5;962;3;10;508;11
23.11.20;15:15:00;1;360;5835;0;2;16;1956;6;27;398;12;3;3;1154;6;8;519;15;4;3;1570;3;3;199;12;5;0;0;0;0;0;0;0;0;6;89;3124;4;42;47;484;460;24;7;2;1852;6;5;463;16;8;0;1880;6;5;464;15;9;0;961;6;4;511;11
23.11.20;15:10:00;1;584;5804;0;2;52;1954;4;78;356;13;3;3;1154;6;8;533;15;4;12;1569;3;12;198;12;5;0;0;0;0;0;0;0;0;6;110;3116;4;64;72;484;460;24;7;0;1852;6;0;472;16;8;0;1880;6;0;504;16;9;1;961;6;4;532;11
23.11.20;15:05:00;1;377;5760;0;2;84;1950;4;110;361;13;3;0;1153;6;0;568;15;4;42;1568;3;44;198;12;5;0;0;0;0;0;0;0;0;6;153;3107;4;77;79;484;460;24;7;65;1852;4;93;441;16;8;65;1880;4;95;417;16;9;6;961;6;12;548;11
23.11.20;15:00:00;1;445;5728;0;2;152;1943;4;183;375;13;3;89;1153;4;123;497;16;4;109;1565;3;113;217;12;5;0;0;0;0;0;0;0;0;6;239;3093;4;120;122;483;460;24;7;123;1846;4;161;453;16;8;124;1875;4;160;451;16;9;29;961;6;39;530;11
23.11.20;14:55:00;1;351;5689;0;2;137;1931;4;166;377;13;3;78;1146;4;113;484;16;4;88;1556;5;91;207;12;5;0;0;0;0;0;0;0;0;6;214;3073;4;96;100;484;460;24;7;94;1836;4;142;454;16;8;108;1864;4;145;453;16;9;8;958;6;12;564;11
23.11.20;14:50:00;1;383;5660;0;2;128;1919;4;158;380;13;3;74;1140;4;111;478;16;4;84;1549;3;88;204;12;5;0;0;0;0;0;0;0;0;6;207;3055;4;112;113;484;460;24;7;98;1828;4;127;432;16;8;92;1856;4;126;434;16;9;7;958;6;10;564;12
23.11.20;14:45:00;1;371;5629;0;2;158;1908;4;187;381;13;3;93;1133;4;127;494;16;4;114;1542;5;118;224;12;5;0;0;0;0;0;0;0;0;6;249;3038;4;138;139;484;460;24;7;125;1820;4;153;459;16;8;119;1848;4;157;440;16;9;56;957;6;75;474;12
23.11.20;14:40:00;1;361;5597;0;2;154;1895;4;185;380;13;3;86;1126;4;121;499;16;4;113;1532;5;117;224;12;5;0;0;0;0;0;0;0;0;6;236;3017;4;100;104;484;460;24;7;112;1810;4;152;450;16;8;111;1838;4;152;457;16;9;20;952;3;26;553;12
23.11.20;14:35:00;1;322;5567;0;2;217;1882;4;248;386;13;3;130;1118;4;168;499;16;4;167;1523;5;174;229;12;5;0;0;0;0;0;0;0;0;6;316;2997;4;145;141;484;460;24;7;187;1800;4;235;454;16;8;196;1829;4;232;437;16;9;104;951;4;131;494;12
23.11.20;14:30:00;1;344;5541;0;2;262;1864;4;294;386;13;3;161;1108;4;200;503;16;4;204;1509;5;213;234;12;5;0;0;0;0;0;0;0;0;6;356;2970;4;199;206;484;460;24;7;229;1785;4;273;469;16;8;232;1812;4;274;477;16;9;127;942;4;156;525;12
23.11.20;14:25:00;1;327;5512;0;2;204;1843;4;234;378;13;3;121;1094;4;160;508;16;4;155;1492;5;161;227;12;5;0;0;0;0;0;0;0;0;6;294;2940;4;146;145;484;460;24;7;163;1766;4;193;459;16;8;158;1793;4;188;475;16;9;88;931;4;116;481;12
23.11.20;14:20:00;1;324;5485;0;2;167;1826;4;197;387;13;3;97;1084;4;135;490;16;4;120;1479;5;125;225;12;5;0;0;0;0;0;0;0;0;6;253;2917;4;128;130;484;460;24;7;104;1752;4;145;458;16;8;109;1780;4;143;459;16;9;19;924;3;26;551;12
23.11.20;14:15:00;1;318;5458;0;2;185;1812;4;214;378;13;3;105;1076;4;145;519;16;4;131;1469;5;136;230;12;5;0;0;0;0;0;0;0;0;6;263;2895;4;139;141;484;460;24;7;133;1744;4;162;451;16;8;120;1770;4;158;467;16;9;63;922;4;81;468;12
23.11.20;14:10:00;1;334;5431;0;2;134;1797;4;164;376;13;3;77;1067;4;112;482;16;4;89;1458;3;92;214;12;5;0;0;0;0;0;0;0;0;6;224;2875;4;104;111;484;470;24;7;148;1733;4;188;452;16;8;152;1761;4;188;459;16;9;64;917;6;84;526;12
23.11.20;14:05:00;1;386;5404;0;2;210;1786;4;241;384;13;3;124;1061;4;164;504;16;4;170;1451;5;177;231;12;5;0;0;0;0;0;0;0;0;6;374;2855;4;175;179;563;552;24;7;248;1722;4;289;459;16;8;258;1749;4;290;466;16;9;134;913;4;164;530;13
23.11.20;14:00:00;1;385;5372;0;2;274;1768;4;308;390;14;3;166;1051;4;204;511;16;4;233;1437;5;242;231;12;5;0;0;0;0;0;0;0;0;6;476;2823;4;257;261;578;562;24;7;261;1701;4;294;464;16;8;252;1727;4;295;472;16;9;139;902;4;168;516;13
23.11.20;13:55:00;1;396;5340;0;2;367;1745;4;405;402;14;3;229;1037;4;271;511;16;4;307;1417;5;320;238;12;5;0;0;0;0;0;0;0;0;6;578;2782;4;304;309;580;563;24;7;331;1679;4;383;480;16;8;358;1706;4;395;469;16;9;189;890;4;221;515;13
23.11.20;13:50:00;1;408;5308;0;2;348;1715;4;385;402;14;3;216;1018;4;255;514;16;4;287;1392;5;299;236;12;5;0;0;0;0;0;0;0;0;6;534;2735;4;273;274;565;568;24;7;339;1652;4;381;484;16;8;358;1677;4;387;473;16;9;191;874;4;220;522;13
23.11.20;13:45:00;1;371;5274;0;2;251;1686;4;286;393;14;3;155;1000;4;194;516;16;4;201;1368;5;209;234;12;5;0;0;0;0;0;0;0;0;6;354;2691;4;169;170;486;464;24;7;233;1623;4;269;456;16;8;239;1647;4;278;460;16;9;128;858;4;154;520;13
23.11.20;13:40:00;1;320;5242;0;2;210;1665;4;242;387;14;3;124;987;4;163;508;16;4;157;1351;5;164;227;12;5;0;0;0;0;0;0;0;0;6;318;2662;4;165;166;517;502;24;7;187;1604;4;217;444;16;8;184;1627;4;220;443;16;9;101;848;4;127;498;13
23.11.20;13:35:00;1;299;5215;0;2;246;1647;4;281;389;14;3;151;976;4;187;507;16;4;197;1338;5;205;232;12;5;0;0;0;0;0;0;0;0;6;390;2635;4;180;179;568;562;24;7;222;1588;4;265;448;16;8;230;1612;4;267;454;16;9;121;839;4;150;522;13
23.11.20;13:30:00;1;336;5190;0;2;304;1627;4;341;394;14;3;190;964;4;230;512;16;4;250;1322;5;260;235;12;5;0;0;0;0;0;0;0;0;6;483;2602;4;239;237;576;561;24;7;320;1570;4;359;474;16;8;313;1592;4;358;475;16;9;171;829;4;203;519;13
23.11.20;13:25:00;1;318;5163;0;2;243;1602;4;277;385;14;3;149;948;4;187;504;16;4;191;1301;5;198;230;12;5;0;0;0;0;0;0;0;0;6;402;2562;4;191;194;571;564;24;7;275;1544;4;315;466;16;8;274;1567;4;317;473;16;9;151;815;4;178;518;13
23.11.20;13:20:00;1;300;5136;0;2;277;1582;4;313;390;14;3;167;936;4;207;512;16;4;236;1285;5;246;233;12;5;0;0;0;0;0;0;0;0;6;481;2529;4;253;258;581;556;24;7;299;1521;4;348;466;16;8;317;1544;4;353;455;16;9;169;803;4;199;506;13